Time,TemperatureF,DewpointF,PressureIn,WindDirection,WindDirectionDegrees,WindSpeedMPH,WindSpeedGustMPH,Humidity,HourlyPrecipIn,Conditions,Clouds,dailyrainin,SoftwareType,DateUTC
2013-01-24 00:03:00,45.0,3.0,-100.00,WNW,296,16.0,19.0,17,0.00,,,-99.99,,2013-01-24 00:03:00,
2013-01-24 00:12:00,45.0,3.0,-100.00,WNW,301,17.0,20.0,17,0.00,,,-99.99,,2013-01-24 00:12:00,
2013-01-24 00:22:00,45.0,4.0,-100.00,WNW,296,17.0,21.0,18,0.00,,,-99.99,,2013-01-24 00:22:00,
2013-01-24 00:42:00,32.0,32.0,-100.00,North,0,0.0,0.0,0,0.00,,,-99.99,,2013-01-24 00:42:00,
2013-01-24 00:53:00,43.0,4.0,-100.00,NW,312,17.0,20.0,19,0.00,,,-99.99,,2013-01-24 00:53:00,
2013-01-24 01:03:00,42.0,4.0,-100.00,NW,308,16.0,18.0,20,0.00,,,-99.99,,2013-01-24 01:03:00,
2013-01-24 01:12:00,42.0,4.0,-100.00,NW,304,15.0,17.0,20,0.00,,,-99.99,,2013-01-24 01:12:00,
2013-01-24 01:23:00,44.0,2.0,-100.00,WNW,301,15.0,17.0,17,0.00,,,-99.99,,2013-01-24 01:23:00,
2013-01-24 01:33:00,43.0,2.0,-100.00,WNW,296,15.0,17.0,18,0.00,,,-99.99,,2013-01-24 01:33:00,
2013-01-24 01:42:00,41.0,3.0,-100.00,WNW,292,14.0,15.0,20,0.00,,,-99.99,,2013-01-24 01:42:00,
2013-01-24 01:52:00,43.0,1.0,-100.00,WNW,288,13.0,15.0,17,0.00,,,-99.99,,2013-01-24 01:52:00,
2013-01-24 02:02:00,42.0,2.0,-100.00,WNW,292,12.0,14.0,18,0.00,,,-99.99,,2013-01-24 02:02:00,
2013-01-24 02:12:00,42.0,1.0,-100.00,WNW,302,12.0,14.0,17,0.00,,,-99.99,,2013-01-24 02:12:00,
2013-01-24 02:22:00,42.0,1.0,-100.00,WNW,302,12.0,15.0,17,0.00,,,-99.99,,2013-01-24 02:22:00,
2013-01-24 02:33:00,43.0,0.0,-100.00,WNW,289,11.0,14.0,16,0.00,,,-99.99,,2013-01-24 02:33:00,
2013-01-24 02:42:00,43.0,0.0,-100.00,WNW,289,11.0,14.0,16,0.00,,,-99.99,,2013-01-24 02:42:00,
2013-01-24 02:52:00,43.0,0.0,-100.00,WNW,289,11.0,14.0,16,0.00,,,-99.99,,2013-01-24 02:52:00,
2013-01-24 03:02:00,41.0,1.0,-100.00,SW,229,4.0,6.0,18,0.00,,,-99.99,,2013-01-24 03:02:00,
2013-01-24 03:12:00,41.0,0.0,-100.00,SW,226,3.0,6.0,17,0.00,,,-99.99,,2013-01-24 03:12:00,
2013-01-24 03:22:00,47.0,-2.0,-100.00,West,263,13.0,17.0,13,0.00,,,-99.99,,2013-01-24 03:22:00,
2013-01-24 03:33:00,43.0,0.0,-100.00,SW,224,6.0,7.0,16,0.00,,,-99.99,,2013-01-24 03:33:00,
2013-01-24 03:43:00,42.0,0.0,-100.00,SW,230,7.0,9.0,17,0.00,,,-99.99,,2013-01-24 03:43:00,
2013-01-24 03:52:00,43.0,0.0,-100.00,SW,234,7.0,10.0,16,0.00,,,-99.99,,2013-01-24 03:52:00,
2013-01-24 04:02:00,43.0,0.0,-100.00,SW,226,6.0,8.0,16,0.00,,,-99.99,,2013-01-24 04:02:00,
2013-01-24 04:12:00,42.0,-1.0,-100.00,WSW,237,6.0,8.0,16,0.00,,,-99.99,,2013-01-24 04:12:00,
2013-01-24 04:22:00,44.0,-2.0,-100.00,West,272,10.0,12.0,14,0.00,,,-99.99,,2013-01-24 04:22:00,
2013-01-24 04:32:00,45.0,-2.0,-100.00,WNW,282,11.0,14.0,13,0.00,,,-99.99,,2013-01-24 04:32:00,
2013-01-24 04:42:00,45.0,-3.0,-100.00,WNW,294,11.0,14.0,13,0.00,,,-99.99,,2013-01-24 04:42:00,
2013-01-24 04:52:00,45.0,-3.0,-100.00,WNW,289,17.0,26.0,13,0.00,,,-99.99,,2013-01-24 04:52:00,
2013-01-24 05:03:00,44.0,-2.0,-100.00,WNW,288,16.0,20.0,14,0.00,,,-99.99,,2013-01-24 05:03:00,
2013-01-24 05:12:00,44.0,-2.0,-100.00,WNW,287,16.0,20.0,14,0.00,,,-99.99,,2013-01-24 05:12:00,
2013-01-24 05:22:00,43.0,-2.0,-100.00,WNW,298,16.0,20.0,15,0.00,,,-99.99,,2013-01-24 05:22:00,
2013-01-24 05:33:00,43.0,-2.0,-100.00,WNW,298,16.0,20.0,15,0.00,,,-99.99,,2013-01-24 05:33:00,
2013-01-24 05:42:00,43.0,-2.0,-100.00,WNW,298,16.0,20.0,15,0.00,,,-99.99,,2013-01-24 05:42:00,
2013-01-24 05:52:00,44.0,-1.0,-100.00,WNW,284,22.0,27.0,15,0.00,,,-99.99,,2013-01-24 05:52:00,
2013-01-24 06:02:00,42.0,0.0,-100.00,WNW,287,16.0,19.0,16,0.00,,,-99.99,,2013-01-24 06:02:00,
2013-01-24 06:12:00,42.0,0.0,-100.00,WNW,289,16.0,19.0,16,0.00,,,-99.99,,2013-01-24 06:12:00,
2013-01-24 06:22:00,42.0,0.0,-100.00,WNW,289,16.0,18.0,17,0.00,,,-99.99,,2013-01-24 06:22:00,
2013-01-24 06:32:00,41.0,0.0,-100.00,WNW,291,16.0,18.0,17,0.00,,,-99.99,,2013-01-24 06:32:00,
2013-01-24 06:42:00,41.0,0.0,-100.00,WNW,298,14.0,16.0,18,0.00,,,-99.99,,2013-01-24 06:42:00,
2013-01-24 06:52:00,41.0,0.0,-100.00,NW,306,13.0,15.0,17,0.00,,,-99.99,,2013-01-24 06:52:00,
2013-01-24 07:02:00,41.0,0.0,-100.00,NW,305,14.0,16.0,18,0.00,,,-99.99,,2013-01-24 07:02:00,
2013-01-24 07:12:00,40.0,0.0,-100.00,WNW,299,12.0,14.0,18,0.00,,,-99.99,,2013-01-24 07:12:00,
2013-01-24 07:22:00,39.0,0.0,-100.00,WNW,295,9.0,12.0,19,0.00,,,-99.99,,2013-01-24 07:22:00,
2013-01-24 07:33:00,41.0,0.0,-100.00,WNW,294,12.0,17.0,18,0.00,,,-99.99,,2013-01-24 07:33:00,
2013-01-24 07:42:00,40.0,0.0,-100.00,West,277,14.0,15.0,19,0.00,,,-99.99,,2013-01-24 07:42:00,
2013-01-24 07:52:00,43.0,-2.0,-100.00,West,271,14.0,17.0,15,0.00,,,-99.99,,2013-01-24 07:52:00,
2013-01-24 08:02:00,40.0,0.0,-100.00,WNW,289,10.0,12.0,18,0.00,,,-99.99,,2013-01-24 08:02:00,
2013-01-24 08:12:00,40.0,0.0,-100.00,WNW,289,12.0,14.0,18,0.00,,,-99.99,,2013-01-24 08:12:00,
2013-01-24 08:22:00,40.0,0.0,-100.00,West,281,15.0,18.0,18,0.00,,,-99.99,,2013-01-24 08:22:00,
2013-01-24 08:33:00,42.0,-2.0,-100.00,West,275,19.0,24.0,16,0.00,,,-99.99,,2013-01-24 08:33:00,
2013-01-24 08:42:00,42.0,-2.0,-100.00,West,268,21.0,26.0,15,0.00,,,-99.99,,2013-01-24 08:42:00,
2013-01-24 08:52:00,41.0,-1.0,-100.00,West,268,17.0,21.0,17,0.00,,,-99.99,,2013-01-24 08:52:00,
2013-01-24 09:03:00,40.0,-1.0,-100.00,West,270,16.0,19.0,17,0.00,,,-99.99,,2013-01-24 09:03:00,
2013-01-24 09:12:00,40.0,-1.0,-100.00,West,271,15.0,17.0,17,0.00,,,-99.99,,2013-01-24 09:12:00,
2013-01-24 09:22:00,39.0,-1.0,-100.00,West,280,11.0,12.0,18,0.00,,,-99.99,,2013-01-24 09:22:00,
2013-01-24 09:33:00,39.0,-1.0,-100.00,WNW,288,9.0,12.0,18,0.00,,,-99.99,,2013-01-24 09:33:00,
2013-01-24 09:42:00,37.0,-1.0,-100.00,NW,323,5.0,6.0,19,0.00,,,-99.99,,2013-01-24 09:42:00,
2013-01-24 09:52:00,37.0,0.0,-100.00,NW,323,7.0,9.0,20,0.00,,,-99.99,,2013-01-24 09:52:00,
2013-01-24 10:02:00,38.0,0.0,-100.00,NW,313,9.0,10.0,20,0.00,,,-99.99,,2013-01-24 10:02:00,
2013-01-24 10:12:00,37.0,0.0,-100.00,WNW,301,10.0,12.0,20,0.00,,,-99.99,,2013-01-24 10:12:00,
2013-01-24 10:22:00,36.0,0.0,-100.00,WNW,298,11.0,15.0,22,0.00,,,-99.99,,2013-01-24 10:22:00,
2013-01-24 10:33:00,35.0,1.0,-100.00,WNW,296,10.0,12.0,23,0.00,,,-99.99,,2013-01-24 10:33:00,
2013-01-24 10:43:00,36.0,0.0,-100.00,WNW,298,11.0,15.0,21,0.00,,,-99.99,,2013-01-24 10:43:00,
2013-01-24 10:52:00,36.0,1.0,-100.00,WNW,296,12.0,15.0,22,0.00,,,-99.99,,2013-01-24 10:52:00,